Preview of NWS' New Version of Forecast
This preview is not operational and should not be used for support decisions.

Regional Weather Roundup (RWR)

Issued by National Weather Service (NWS)

                            
000
ASUS46 KPQR 191310
RWROR 

OREGON REGIONAL WEATHER ROUNDUP
NATIONAL WEATHER SERVICE PORTLAND OR
600 AM PDT SUN MAY 19 2019

NOTE: "FAIR" INDICATES FEW OR NO CLOUDS BELOW 12,000 FEET WITH
NO SIGNIFICANT WEATHER AND/OR OBSTRUCTIONS TO VISIBILITY.

ORZ001>013-191400-
NORTHWEST OREGON

  
CITY           SKY/WX    TMP DP  RH WIND       PRES   REMARKS
ASTORIA        LGT RAIN  52  50  93 CALM      29.72R                  
TILLAMOOK      CLOUDY    50  50 100 CALM      29.75R                  
NEWPORT        FOG       46  46 100 E6        29.76R VSB 1/4          
PORTLAND       CLOUDY    51  48  89 E7        29.74S                  
VANCOUVER WA   CLOUDY    51  48  89 E5        29.74S                  
SCAPPOOSE      CLOUDY    53  50  89 S5        29.74R                  
HILLSBORO      CLOUDY    50  49  96 SE5       29.74R                  
AURORA         CLOUDY    51  48  89 CALM      29.75R                  
MCMINNVILLE    CLOUDY    51  50  96 E5        29.73R                  
SALEM          CLOUDY    49  48  97 CALM      29.73R                  
CORVALLIS      PTCLDY    47  47 100 NW3       29.74R                  
EUGENE         FOG       50  48  93 NW5       29.73R VSB 3/4          
$$

ORZ021-028-191400-
SOUTHWEST OREGON

  
CITY           SKY/WX    TMP DP  RH WIND       PRES   REMARKS
NORTH BEND     MOCLDY    45  45 100 SE6       29.73R                  
BROOKINGS      CLEAR     43  42  97 CALM      29.67F                  
ROSEBURG       FOG       48  47  96 NE3       29.72R VSB 1            
SEXTON SUMMIT  PTCLDY    37  36  96 CALM      29.66S                  
GRANTS PASS    FOG       45  45 100 CALM      29.72S VSB 1/4          
MEDFORD        MOCLDY    42  41  96 NW3       29.69R FOG              
$$

ORZ014>016-041-191400-
COLUMBIA GORGE

  
CITY           SKY/WX    TMP DP  RH WIND       PRES   REMARKS
TROUTDALE      CLOUDY    50  48  93 CALM      29.74S                  
HOOD RIVER     RAIN      48  46  93 CALM      29.74R                  
THE DALLES     LGT RAIN  51  45  79 NW12      29.70S                  
$$

ORZ029>031-041-044-049-050-061>064-502-503-505>511-191400-
EASTERN OREGON

  
CITY           SKY/WX    TMP DP  RH WIND       PRES   REMARKS
MADRAS         CLOUDY    45  37  76 W8        29.71S                  
REDMOND        LGT RAIN  44  40  85 SW7       29.68S                  
BEND           DRIZZLE   43  39  87 W6        29.69R                  
PRINEVILLE     CLOUDY    45  39  81 SW3       29.68S                  
KLAMATH FALLS  CLOUDY    39  36  89 CALM      29.67S                  
LAKEVIEW       CLOUDY    37  36  96 NW6       29.67S                  
HERMISTON      MOCLDY    53  50  89 NE6       29.66S                  
PENDLETON      CLOUDY    48  45  89 N5        29.65F                  
JOHN DAY       DRIZZLE   46  42  86 CALM      29.67S                  
MEACHAM        CLOUDY    43  40  89 CALM      29.68S                  
LA GRANDE      CLOUDY    44  43  96 NW3       29.69S                  
BAKER CITY     CLOUDY    46  43  89 NW6       29.68F                  
BURNS          RAIN      45  42  89 CALM      29.66F                  
ROME             N/A     42  39  89 SW16      29.61F                  
ONTARIO        LGT RAIN  53  48  83 W5        29.66F                  
$$